Regional Weather Roundup
Issued by NWS

Home | Current Version | Previous Version | Text Only | Print | Product List | Glossary Off
Versions: 1 2 3 4 5 6 7 8 9 10 11 12 13 14 15 16 17 18 19 20 21 22 23 24 25 26 27 28 29 30 31 32 33 34 35 36 37 38 39 40 41 42 43 44 45 46 47 48 49 50

906
ASUS44 KMEG 201710
RWRTN
TENNESSEE HOURLY STATE WEATHER ROUNDUP
NATIONAL WEATHER SERVICE MEMPHIS TN
1200 PM CDT FRI OCT 20 2017

TNZ002-004-019-021-049-052-054-088>092-201800-
WEST TENNESSEE

CITY           SKY/WX    TMP DP  RH WIND       PRES   REMARKS
MEMPHIS INTL   PTSUNNY   73  55  53 S7        30.23F
NWS MEMPHIS      N/A     74 N/A N/A MISG        N/A
JACKSON        SUNNY     73  55  53 S7        30.26F
SOMERVILLE     SUNNY     72  54  53 VRB6      30.23F
COVINGTON      SUNNY     73  54  49 SW6       30.23F
UNION CITY     SUNNY     72  54  53 S8        30.24F
BOLIVAR        SUNNY     72  54  53 SE6       30.24F
PARIS          SUNNY     72  54  53 VRB5      30.25F
HUNTINGDON     SUNNY     72  55  56 VRB7      30.25F
LEXINGTON      SUNNY     70  50  49 S6        30.26F
SELMER         SUNNY     72  54  53 CALM      30.25F
SAVANNAH       SUNNY     73  50  43 VRB6      30.25F
$$

TNZ008-025-027-028-033-062-065-066-201800-
NORTH MIDDLE TENNESSEE

CITY           SKY/WX    TMP DP  RH WIND       PRES   REMARKS
NASHVILLE      PTSUNNY   72  47  40 CALM      30.29F
CLARKSVILLE    SUNNY     70  50  49 S5        30.27F
SMYRNA         SUNNY     71  48  43 CALM      30.29F
COOKEVILLE     SUNNY     72  50  46 CALM      30.28F
GALLATIN       SUNNY     72  48  43 CALM      30.31F
CROSSVILLE     SUNNY     71  47  42 NE6       30.31F
$$

TNZ061-075-076-078-094-096-097-201800-
SOUTH MIDDLE TENNESSEE

CITY           SKY/WX    TMP DP  RH WIND       PRES   REMARKS
FAYETTEVILLE   SUNNY     70  46  43 VRB6      30.28F
TULLAHOMA      SUNNY     72  45  37 E3        30.30S
WINCHESTER     SUNNY     72  46  40 NW3         N/A
COLUMBIA       SUNNY     72  48  43 CALM      30.26F
SHELBYVILLE    SUNNY     72  50  46 CALM      30.28F
$$

TNZ017-018-042-046-047-201800-
NORTHEAST TENNESSEE

CITY           SKY/WX    TMP DP  RH WIND       PRES   REMARKS
TRI CITIES     SUNNY     68  47  46 CALM      30.33F
ELIZABETHTON   SUNNY     70  45  40 VRB3      30.32F
$$

TNZ012-013-036-069-073-074-201800-
CENTRAL EAST TENNESSEE

CITY           SKY/WX    TMP DP  RH WIND       PRES   REMARKS
KNOXVILLE      MOSUNNY   68  51  54 N6        30.29F
OAK RIDGE      SUNNY     68  53  58 VRB3      30.32F
DOWNTOWN KNOXV SUNNY     70  52  52 CALM      30.30F
GATLINBURG     SUNNY     70  48  46 CALM      30.30F
MORRISTOWN     SUNNY     70  48  46 CALM      30.30F
JACKSBORO      SUNNY     68  50  52 CALM      30.34F
$$

TNZ083-085-099-201800-
SOUTHEAST TENNESSEE

CITY           SKY/WX    TMP DP  RH WIND       PRES   REMARKS
CHATTANOOGA    MOSUNNY   68  49  50 CALM      30.29F
DAYTON         SUNNY     68  55  64 VRB6      30.29F
$$

SKY/WX REPORTED AS FAIR MEANS FEW OR NO CLOUDS BELOW
12 THOUSAND FEET.





USA.gov is the U.S. government's official web portal to all federal, state and local government web resources and services.